Time,TemperatureF,DewpointF,PressureIn,WindDirection,WindDirectionDegrees,WindSpeedMPH,WindSpeedGustMPH,Humidity,HourlyPrecipIn,Conditions,Clouds,dailyrainin,SoftwareType,DateUTC
2013-11-03 00:00:00,42.7,40.0,29.90,NNW,335,0.0,3.0,90,0.00,,,0.00,Wunderground v.1.15,2013-11-03 07:00:00,
2013-11-03 00:05:00,42.5,39.8,29.89,NNW,335,0.0,3.0,90,0.00,,,0.00,Wunderground v.1.15,2013-11-03 07:05:00,
2013-11-03 00:15:00,42.1,39.4,29.89,NNW,335,0.0,3.0,90,0.00,,,0.00,Wunderground v.1.15,2013-11-03 07:15:00,
2013-11-03 00:25:00,41.9,39.2,29.89,NNW,335,0.0,3.0,90,0.00,,,0.00,Wunderground v.1.15,2013-11-03 07:25:00,
2013-11-03 00:34:00,41.8,39.4,29.89,NNW,335,0.0,3.0,91,0.00,,,0.00,Wunderground v.1.15,2013-11-03 07:34:00,
2013-11-03 00:40:00,41.7,39.3,29.89,NNW,335,0.0,3.0,91,0.00,,,0.00,Wunderground v.1.15,2013-11-03 07:40:00,
2013-11-03 00:49:00,41.4,39.0,29.89,NNW,335,0.0,3.0,91,0.00,,,0.00,Wunderground v.1.15,2013-11-03 07:49:00,
2013-11-03 00:55:00,41.1,38.4,29.89,NNW,335,0.0,3.0,90,0.00,,,0.00,Wunderground v.1.15,2013-11-03 07:55:00,
2013-11-03 01:05:00,40.8,38.4,29.90,NNW,335,0.0,3.0,91,0.00,,,0.00,Wunderground v.1.15,2013-11-03 08:05:00,
2013-11-03 01:10:00,40.7,38.3,29.90,NNW,335,0.0,3.0,91,0.00,,,0.00,Wunderground v.1.15,2013-11-03 08:10:00,
2013-11-03 01:20:00,40.5,38.1,29.90,NNW,335,0.0,3.0,91,0.00,,,0.00,Wunderground v.1.15,2013-11-03 08:20:00,
2013-11-03 01:25:00,40.5,38.1,29.90,NNW,335,0.0,3.0,91,0.00,,,0.00,Wunderground v.1.15,2013-11-03 08:25:00,
2013-11-03 01:35:00,40.3,37.9,29.91,NNW,335,1.0,3.0,91,0.00,,,0.00,Wunderground v.1.15,2013-11-03 08:35:00,
2013-11-03 01:40:00,40.2,37.8,29.90,NNW,335,1.0,3.0,91,0.00,,,0.00,Wunderground v.1.15,2013-11-03 08:40:00,
2013-11-03 01:50:00,40.3,38.2,29.90,NNW,348,0.0,3.0,92,0.00,,,0.00,Wunderground v.1.15,2013-11-03 08:50:00,
2013-11-03 01:00:00,40.4,38.3,29.91,NNW,348,0.0,3.0,92,0.00,,,0.00,Wunderground v.1.15,2013-11-03 09:00:00,
2013-11-03 01:05:00,40.3,38.2,29.90,NNW,348,0.0,3.0,92,0.00,,,0.00,Wunderground v.1.15,2013-11-03 09:05:00,
2013-11-03 01:10:00,40.2,38.1,29.91,NNW,348,0.0,3.0,92,0.00,,,0.00,Wunderground v.1.15,2013-11-03 09:10:00,
2013-11-03 01:15:00,40.0,37.6,29.91,North,355,0.0,3.0,91,0.00,,,0.00,Wunderground v.1.15,2013-11-03 09:15:00,
2013-11-03 01:25:00,39.9,37.8,29.90,NNE,15,1.0,3.0,92,0.00,,,0.00,Wunderground v.1.15,2013-11-03 09:25:00,
2013-11-03 01:35:00,39.7,37.6,29.90,North,355,1.0,3.0,92,0.00,,,0.00,Wunderground v.1.15,2013-11-03 09:35:00,
2013-11-03 01:40:00,39.8,37.7,29.90,North,9,0.0,3.0,92,0.00,,,0.00,Wunderground v.1.15,2013-11-03 09:40:00,
2013-11-03 01:45:00,39.8,37.7,29.90,North,9,0.0,3.0,92,0.00,,,0.00,Wunderground v.1.15,2013-11-03 09:45:00,
2013-11-03 01:55:00,39.6,37.5,29.90,North,9,0.0,3.0,92,0.00,,,0.00,Wunderground v.1.15,2013-11-03 09:55:00,
2013-11-03 02:00:00,39.4,37.3,29.89,North,9,0.0,3.0,92,0.00,,,0.00,Wunderground v.1.15,2013-11-03 10:00:00,
2013-11-03 02:10:00,39.2,37.1,29.89,North,9,0.0,3.0,92,0.00,,,0.00,Wunderground v.1.15,2013-11-03 10:10:00,
2013-11-03 02:15:00,39.0,36.6,29.89,North,9,0.0,3.0,91,0.00,,,0.00,Wunderground v.1.15,2013-11-03 10:15:00,
2013-11-03 02:25:00,38.8,36.7,29.89,North,9,0.0,3.0,92,0.00,,,0.00,Wunderground v.1.15,2013-11-03 10:25:00,
2013-11-03 02:35:00,38.7,36.6,29.89,NE,51,0.0,3.0,92,0.00,,,0.00,Wunderground v.1.15,2013-11-03 10:35:00,
2013-11-03 02:40:00,38.7,36.6,29.89,NE,52,0.0,3.0,92,0.00,,,0.00,Wunderground v.1.15,2013-11-03 10:40:00,
2013-11-03 02:50:00,38.6,36.5,29.88,NE,51,0.0,3.0,92,0.00,,,0.00,Wunderground v.1.15,2013-11-03 10:50:00,
2013-11-03 03:00:00,38.4,36.3,29.88,NE,51,0.0,3.0,92,0.00,,,0.00,Wunderground v.1.15,2013-11-03 11:00:00,
2013-11-03 03:10:00,38.1,36.0,29.88,NE,49,0.0,3.0,92,0.00,,,0.00,Wunderground v.1.15,2013-11-03 11:10:00,
2013-11-03 03:15:00,38.0,35.9,29.88,NE,49,0.0,3.0,92,0.00,,,0.00,Wunderground v.1.15,2013-11-03 11:15:00,
2013-11-03 03:20:00,38.0,35.9,29.88,NE,49,0.0,3.0,92,0.00,,,0.00,Wunderground v.1.15,2013-11-03 11:20:00,
2013-11-03 03:30:00,38.0,35.9,29.88,NE,49,0.0,3.0,92,0.00,,,0.00,Wunderground v.1.15,2013-11-03 11:30:00,
2013-11-03 03:40:00,37.7,35.6,29.88,NE,49,0.0,3.0,92,0.00,,,0.00,Wunderground v.1.15,2013-11-03 11:40:00,
2013-11-03 03:45:00,37.6,35.5,29.88,NE,49,0.0,3.0,92,0.00,,,0.00,Wunderground v.1.15,2013-11-03 11:45:00,
2013-11-03 03:50:00,37.5,35.4,29.88,NE,49,0.0,3.0,92,0.00,,,0.00,Wunderground v.1.15,2013-11-03 11:50:00,
2013-11-03 03:55:00,37.4,35.3,29.88,NE,49,0.0,3.0,92,0.00,,,0.00,Wunderground v.1.15,2013-11-03 11:55:00,
2013-11-03 04:05:00,37.2,35.1,29.88,NE,49,0.0,3.0,92,0.00,,,0.00,Wunderground v.1.15,2013-11-03 12:05:00,
2013-11-03 04:10:00,37.1,35.0,29.88,NE,49,0.0,3.0,92,0.00,,,0.00,Wunderground v.1.15,2013-11-03 12:10:00,
2013-11-03 04:15:00,37.0,34.9,29.88,NE,49,0.0,3.0,92,0.00,,,0.00,Wunderground v.1.15,2013-11-03 12:15:00,
2013-11-03 04:20:00,37.0,34.9,29.88,NE,49,0.0,3.0,92,0.00,,,0.00,Wunderground v.1.15,2013-11-03 12:20:00,
2013-11-03 04:25:00,36.9,34.8,29.88,NE,49,0.0,3.0,92,0.00,,,0.00,Wunderground v.1.15,2013-11-03 12:25:00,
2013-11-03 04:30:00,36.9,35.1,29.89,NE,49,0.0,3.0,93,0.00,,,0.00,Wunderground v.1.15,2013-11-03 12:30:00,
2013-11-03 04:40:00,36.8,35.0,29.89,NE,49,0.0,3.0,93,0.00,,,0.00,Wunderground v.1.15,2013-11-03 12:40:00,
2013-11-03 04:45:00,36.7,34.9,29.89,North,360,1.0,3.0,93,0.00,,,0.00,Wunderground v.1.15,2013-11-03 12:45:00,
2013-11-03 04:55:00,36.8,35.0,29.89,North,5,1.0,3.0,93,0.00,,,0.00,Wunderground v.1.15,2013-11-03 12:55:00,
2013-11-03 05:00:00,36.8,35.0,29.89,North,5,1.0,1.0,93,0.00,,,0.00,Wunderground v.1.15,2013-11-03 13:00:00,
2013-11-03 05:05:00,36.8,35.0,29.89,North,5,0.0,3.0,93,0.00,,,0.00,Wunderground v.1.15,2013-11-03 13:05:00,
2013-11-03 05:20:00,36.9,35.1,29.90,North,5,0.0,3.0,93,0.00,,,0.00,Wunderground v.1.15,2013-11-03 13:20:00,
2013-11-03 05:30:00,36.9,35.3,29.90,North,5,0.0,3.0,94,0.00,,,0.00,Wunderground v.1.15,2013-11-03 13:30:00,
2013-11-03 05:35:00,36.9,35.1,29.91,North,5,0.0,3.0,93,0.00,,,0.00,Wunderground v.1.15,2013-11-03 13:35:00,
2013-11-03 05:45:00,36.6,34.8,29.91,North,5,1.0,3.0,93,0.00,,,0.00,Wunderground v.1.15,2013-11-03 13:45:00,
2013-11-03 05:50:00,36.5,34.7,29.91,North,5,1.0,1.0,93,0.00,,,0.00,Wunderground v.1.15,2013-11-03 13:50:00,
2013-11-03 06:00:00,36.4,34.6,29.91,North,9,1.0,3.0,93,0.00,,,0.00,Wunderground v.1.15,2013-11-03 14:00:00,
2013-11-03 06:05:00,36.3,34.5,29.91,North,5,1.0,3.0,93,0.00,,,0.00,Wunderground v.1.15,2013-11-03 14:05:00,
2013-11-03 06:15:00,36.4,34.6,29.91,North,5,1.0,3.0,93,0.00,,,0.00,Wunderground v.1.15,2013-11-03 14:15:00,
2013-11-03 06:25:00,36.7,35.1,29.91,North,5,0.0,3.0,94,0.00,,,0.00,Wunderground v.1.15,2013-11-03 14:25:00,
2013-11-03 06:35:00,36.6,34.8,29.91,North,5,0.0,3.0,93,0.00,,,0.00,Wunderground v.1.15,2013-11-03 14:35:00,
2013-11-03 06:40:00,36.6,34.8,29.91,North,5,0.0,3.0,93,0.00,,,0.00,Wunderground v.1.15,2013-11-03 14:40:00,
2013-11-03 06:50:00,36.6,35.0,29.91,North,5,0.0,3.0,94,0.00,,,0.00,Wunderground v.1.15,2013-11-03 14:50:00,
2013-11-03 07:00:00,36.9,35.3,29.91,North,5,0.0,3.0,94,0.00,,,0.00,Wunderground v.1.15,2013-11-03 15:00:00,
2013-11-03 07:05:00,37.2,35.6,29.91,North,5,0.0,3.0,94,0.00,,,0.00,Wunderground v.1.15,2013-11-03 15:05:00,
2013-11-03 07:10:00,37.5,36.2,29.92,NNE,15,0.0,3.0,95,0.00,,,0.00,Wunderground v.1.15,2013-11-03 15:10:00,
2013-11-03 07:20:00,38.3,37.0,29.91,NNE,15,0.0,3.0,95,0.00,,,0.00,Wunderground v.1.15,2013-11-03 15:20:00,
2013-11-03 07:30:00,39.4,38.4,29.92,NE,37,0.0,3.0,96,0.00,,,0.00,Wunderground v.1.15,2013-11-03 15:30:00,
2013-11-03 07:35:00,40.2,39.2,29.92,NE,36,0.0,3.0,96,0.00,,,0.00,Wunderground v.1.15,2013-11-03 15:35:00,
2013-11-03 07:40:00,41.0,39.9,29.92,NE,34,0.0,3.0,96,0.00,,,0.00,Wunderground v.1.15,2013-11-03 15:40:00,
2013-11-03 07:45:00,41.7,40.6,29.92,NE,38,0.0,3.0,96,0.00,,,0.00,Wunderground v.1.15,2013-11-03 15:45:00,
2013-11-03 07:55:00,43.2,42.1,29.92,ENE,76,0.0,3.0,96,0.00,,,0.00,Wunderground v.1.15,2013-11-03 15:55:00,
2013-11-03 08:05:00,45.0,42.5,29.92,East,92,1.0,3.0,91,0.00,,,0.00,Wunderground v.1.15,2013-11-03 16:05:00,
2013-11-03 08:10:00,46.2,42.8,29.92,East,94,1.0,1.0,88,0.00,,,0.00,Wunderground v.1.15,2013-11-03 16:10:00,
2013-11-03 08:20:00,48.5,43.6,29.92,East,92,1.0,3.0,83,0.00,,,0.00,Wunderground v.1.15,2013-11-03 16:20:00,
2013-11-03 08:25:00,49.8,44.2,29.92,East,92,1.0,3.0,81,0.00,,,0.00,Wunderground v.1.15,2013-11-03 16:25:00,
2013-11-03 08:30:00,50.9,44.6,29.92,East,86,1.0,1.0,79,0.00,,,0.00,Wunderground v.1.15,2013-11-03 16:30:00,
2013-11-03 08:40:00,53.3,43.8,29.92,East,98,1.0,3.0,70,0.00,,,0.00,Wunderground v.1.15,2013-11-03 16:40:00,
2013-11-03 08:50:00,55.3,43.3,29.91,ESE,117,1.0,3.0,64,0.00,,,0.00,Wunderground v.1.15,2013-11-03 16:50:00,
2013-11-03 09:00:00,56.7,43.0,29.91,ENE,65,1.0,3.0,60,0.00,,,0.00,Wunderground v.1.15,2013-11-03 17:00:00,
2013-11-03 09:05:00,57.4,43.2,29.91,SE,139,1.0,3.0,59,0.00,,,0.00,Wunderground v.1.15,2013-11-03 17:05:00,
2013-11-03 09:10:00,58.1,43.4,29.91,SE,129,1.0,3.0,58,0.00,,,0.00,Wunderground v.1.15,2013-11-03 17:10:00,
2013-11-03 09:20:00,59.1,43.4,29.91,ESE,117,1.0,1.0,56,0.00,,,0.00,Wunderground v.1.15,2013-11-03 17:20:00,
2013-11-03 09:25:00,59.8,44.1,29.91,SE,135,1.0,3.0,56,0.00,,,0.00,Wunderground v.1.15,2013-11-03 17:25:00,
2013-11-03 09:30:00,60.1,44.8,29.91,SE,137,1.0,1.0,57,0.00,,,0.00,Wunderground v.1.15,2013-11-03 17:30:00,
2013-11-03 09:40:00,61.3,45.5,29.91,SE,137,0.0,3.0,56,0.00,,,0.00,Wunderground v.1.15,2013-11-03 17:40:00,
2013-11-03 09:50:00,62.6,48.5,29.91,South,170,0.0,3.0,60,0.00,,,0.00,Wunderground v.1.15,2013-11-03 17:50:00,
2013-11-03 10:00:00,63.6,49.5,29.91,SSW,207,2.0,3.0,60,0.00,,,0.00,Wunderground v.1.15,2013-11-03 18:00:00,
2013-11-03 10:05:00,64.0,49.8,29.91,SW,220,2.0,3.0,60,0.00,,,0.00,Wunderground v.1.15,2013-11-03 18:05:00,
2013-11-03 10:15:00,64.8,51.0,29.90,South,173,2.0,3.0,61,0.00,,,0.00,Wunderground v.1.15,2013-11-03 18:15:00,
2013-11-03 10:25:00,65.0,51.2,29.90,SSE,165,3.0,5.0,61,0.00,,,0.00,Wunderground v.1.15,2013-11-03 18:25:00,
2013-11-03 10:35:00,65.5,51.7,29.90,SSE,164,2.0,3.0,61,0.00,,,0.00,Wunderground v.1.15,2013-11-03 18:35:00,
2013-11-03 10:45:00,65.9,52.1,29.90,SSW,209,3.0,3.0,61,0.00,,,0.00,Wunderground v.1.15,2013-11-03 18:45:00,
2013-11-03 10:50:00,66.2,51.9,29.90,South,191,2.0,3.0,60,0.00,,,0.00,Wunderground v.1.15,2013-11-03 18:50:00,
2013-11-03 10:55:00,66.6,52.7,29.89,SW,236,2.0,3.0,61,0.00,,,0.00,Wunderground v.1.15,2013-11-03 18:55:00,
2013-11-03 11:00:00,67.1,52.3,29.90,SSW,209,2.0,3.0,59,0.00,,,0.00,Wunderground v.1.15,2013-11-03 19:00:00,
2013-11-03 11:10:00,67.8,51.5,29.89,SW,227,3.0,3.0,56,0.00,,,0.00,Wunderground v.1.15,2013-11-03 19:10:00,
2013-11-03 11:20:00,68.1,52.3,29.89,SSW,209,3.0,3.0,57,0.00,,,0.00,Wunderground v.1.15,2013-11-03 19:20:00,
2013-11-03 11:25:00,68.1,51.8,29.88,SW,223,3.0,4.0,56,0.00,,,0.00,Wunderground v.1.15,2013-11-03 19:25:00,
2013-11-03 11:35:00,68.4,52.1,29.88,South,178,3.0,5.0,56,0.00,,,0.00,Wunderground v.1.15,2013-11-03 19:35:00,
2013-11-03 11:45:00,68.1,52.3,29.88,South,178,3.0,5.0,57,0.00,,,0.00,Wunderground v.1.15,2013-11-03 19:45:00,
2013-11-03 11:50:00,68.3,52.5,29.88,SW,216,3.0,3.0,57,0.00,,,0.00,Wunderground v.1.15,2013-11-03 19:50:00,
2013-11-03 12:00:00,68.7,52.4,29.87,SW,234,4.0,4.0,56,0.00,,,0.00,Wunderground v.1.15,2013-11-03 20:00:00,
2013-11-03 12:05:00,68.8,52.5,29.87,SSW,213,5.0,5.0,56,0.00,,,0.00,Wunderground v.1.15,2013-11-03 20:05:00,
2013-11-03 12:15:00,68.7,53.3,29.86,SSW,213,4.0,5.0,58,0.00,,,0.00,Wunderground v.1.15,2013-11-03 20:15:00,
2013-11-03 12:25:00,68.6,52.8,29.85,WSW,254,5.0,6.0,57,0.00,,,0.00,Wunderground v.1.15,2013-11-03 20:25:00,
2013-11-03 12:35:00,68.3,53.9,29.85,SW,229,5.0,6.0,60,0.00,,,0.00,Wunderground v.1.15,2013-11-03 20:35:00,
2013-11-03 12:45:00,68.6,54.2,29.84,SSW,213,4.0,4.0,60,0.00,,,0.00,Wunderground v.1.15,2013-11-03 20:45:00,
2013-11-03 12:50:00,68.6,54.2,29.84,SSW,197,4.0,4.0,60,0.00,,,0.00,Wunderground v.1.15,2013-11-03 20:50:00,
2013-11-03 12:55:00,68.7,54.7,29.84,West,265,4.0,6.0,61,0.00,,,0.00,Wunderground v.1.15,2013-11-03 20:55:00,
2013-11-03 13:05:00,68.9,54.0,29.84,SW,215,5.0,6.0,59,0.00,,,0.00,Wunderground v.1.15,2013-11-03 21:05:00,
2013-11-03 13:10:00,68.8,54.8,29.84,WSW,242,5.0,9.0,61,0.00,,,0.00,Wunderground v.1.15,2013-11-03 21:10:00,
2013-11-03 13:20:00,68.4,54.0,29.83,SW,229,5.0,5.0,60,0.00,,,0.00,Wunderground v.1.15,2013-11-03 21:20:00,
2013-11-03 13:30:00,68.9,55.3,29.83,SW,227,3.0,4.0,62,0.00,,,0.00,Wunderground v.1.15,2013-11-03 21:30:00,
2013-11-03 13:40:00,68.7,54.7,29.83,SW,216,5.0,6.0,61,0.00,,,0.00,Wunderground v.1.15,2013-11-03 21:40:00,
2013-11-03 13:50:00,68.8,54.8,29.83,SW,233,4.0,6.0,61,0.00,,,0.00,Wunderground v.1.15,2013-11-03 21:50:00,
2013-11-03 14:00:00,68.4,54.9,29.84,SSW,211,5.0,5.0,62,0.00,,,0.00,Wunderground v.1.15,2013-11-03 22:00:00,
2013-11-03 14:05:00,68.1,54.6,29.83,SW,215,5.0,5.0,62,0.00,,,0.00,Wunderground v.1.15,2013-11-03 22:05:00,
2013-11-03 14:15:00,68.0,55.4,29.83,WSW,242,3.0,4.0,64,0.00,,,0.00,Wunderground v.1.15,2013-11-03 22:15:00,
2013-11-03 14:25:00,67.8,55.2,29.83,SW,228,4.0,6.0,64,0.00,,,0.00,Wunderground v.1.15,2013-11-03 22:25:00,
2013-11-03 14:35:00,67.2,55.0,29.83,SW,234,3.0,4.0,65,0.00,,,0.00,Wunderground v.1.15,2013-11-03 22:35:00,
2013-11-03 14:40:00,67.1,54.5,29.83,SSW,200,4.0,6.0,64,0.00,,,0.00,Wunderground v.1.15,2013-11-03 22:40:00,
2013-11-03 14:50:00,66.8,54.7,29.83,WSW,238,4.0,8.0,65,0.00,,,0.00,Wunderground v.1.15,2013-11-03 22:50:00,
2013-11-03 14:55:00,66.6,54.5,29.83,WSW,238,4.0,8.0,65,0.00,,,0.00,Wunderground v.1.15,2013-11-03 22:55:00,
2013-11-03 15:00:00,66.6,54.5,29.83,SW,225,4.0,6.0,65,0.00,,,0.00,Wunderground v.1.15,2013-11-03 23:00:00,
2013-11-03 15:10:00,66.2,54.5,29.83,SSW,211,4.0,4.0,66,0.00,,,0.00,Wunderground v.1.15,2013-11-03 23:10:00,
2013-11-03 15:15:00,66.1,54.4,29.83,SW,219,3.0,4.0,66,0.00,,,0.00,Wunderground v.1.15,2013-11-03 23:15:00,
2013-11-03 15:25:00,65.4,54.2,29.82,SW,214,4.0,4.0,67,0.00,,,0.00,Wunderground v.1.15,2013-11-03 23:25:00,
2013-11-03 15:30:00,65.3,54.5,29.82,SSW,205,4.0,4.0,68,0.00,,,0.00,Wunderground v.1.15,2013-11-03 23:30:00,
2013-11-03 15:35:00,65.0,54.2,29.82,SW,219,3.0,4.0,68,0.00,,,0.00,Wunderground v.1.15,2013-11-03 23:35:00,
2013-11-03 15:45:00,64.8,54.0,29.81,WSW,238,4.0,8.0,68,0.00,,,0.00,Wunderground v.1.15,2013-11-03 23:45:00,
2013-11-03 15:50:00,64.6,54.2,29.82,WSW,245,4.0,4.0,69,0.00,,,0.00,Wunderground v.1.15,2013-11-03 23:50:00,
2013-11-03 15:55:00,64.3,53.9,29.82,SSW,207,4.0,5.0,69,0.00,,,0.00,Wunderground v.1.15,2013-11-03 23:55:00,
2013-11-03 16:05:00,63.4,53.4,29.82,South,188,3.0,4.0,70,0.00,,,0.00,Wunderground v.1.15,2013-11-04 00:05:00,
2013-11-03 16:15:00,62.7,53.2,29.82,WSW,246,3.0,4.0,71,0.00,,,0.00,Wunderground v.1.15,2013-11-04 00:15:00,
2013-11-03 16:25:00,62.0,52.9,29.82,SSW,209,4.0,5.0,72,0.00,,,0.00,Wunderground v.1.15,2013-11-04 00:25:00,
2013-11-03 16:35:00,61.3,52.6,29.82,SSW,209,3.0,9.0,73,0.00,,,0.00,Wunderground v.1.15,2013-11-04 00:35:00,
2013-11-03 16:40:00,61.0,52.7,29.82,South,180,3.0,3.0,74,0.00,,,0.00,Wunderground v.1.15,2013-11-04 00:40:00,
2013-11-03 16:50:00,60.5,52.5,29.82,WSW,251,2.0,4.0,75,0.00,,,0.00,Wunderground v.1.15,2013-11-04 00:50:00,
2013-11-03 17:00:00,60.0,52.1,29.83,WSW,252,3.0,3.0,75,0.00,,,0.00,Wunderground v.1.15,2013-11-04 01:00:00,
2013-11-03 17:05:00,59.7,52.1,29.83,WSW,254,3.0,3.0,76,0.00,,,0.00,Wunderground v.1.15,2013-11-04 01:05:00,
2013-11-03 17:15:00,59.3,52.1,29.83,WSW,238,2.0,3.0,77,0.00,,,0.00,Wunderground v.1.15,2013-11-04 01:15:00,
2013-11-03 17:20:00,59.1,51.9,29.83,WSW,244,1.0,1.0,77,0.00,,,0.00,Wunderground v.1.15,2013-11-04 01:20:00,
2013-11-03 17:30:00,58.6,51.8,29.83,WSW,248,1.0,3.0,78,0.00,,,0.00,Wunderground v.1.15,2013-11-04 01:30:00,
2013-11-03 17:35:00,58.3,51.5,29.83,WSW,252,1.0,3.0,78,0.00,,,0.00,Wunderground v.1.15,2013-11-04 01:35:00,
2013-11-03 17:40:00,58.0,51.5,29.84,WSW,252,0.0,3.0,79,0.00,,,0.00,Wunderground v.1.15,2013-11-04 01:40:00,
2013-11-03 17:50:00,57.3,50.8,29.84,WSW,252,0.0,3.0,79,0.00,,,0.00,Wunderground v.1.15,2013-11-04 01:50:00,
2013-11-03 18:00:00,56.5,50.7,29.84,West,280,0.0,3.0,81,0.00,,,0.00,Wunderground v.1.15,2013-11-04 02:00:00,
2013-11-03 18:10:00,55.9,50.5,29.84,WNW,303,2.0,3.0,82,0.00,,,0.00,Wunderground v.1.15,2013-11-04 02:10:00,
2013-11-03 18:15:00,55.7,50.6,29.84,WNW,299,1.0,3.0,83,0.00,,,0.00,Wunderground v.1.15,2013-11-04 02:15:00,
2013-11-03 18:20:00,55.5,50.4,29.84,WNW,301,1.0,3.0,83,0.00,,,0.00,Wunderground v.1.15,2013-11-04 02:20:00,
2013-11-03 18:30:00,55.0,50.3,29.84,WNW,301,0.0,3.0,84,0.00,,,0.00,Wunderground v.1.15,2013-11-04 02:30:00,
2013-11-03 18:35:00,54.7,50.0,29.84,WNW,301,0.0,3.0,84,0.00,,,0.00,Wunderground v.1.15,2013-11-04 02:35:00,
2013-11-03 18:45:00,54.1,49.7,29.85,WNW,300,0.0,3.0,85,0.00,,,0.00,Wunderground v.1.15,2013-11-04 02:45:00,
2013-11-03 18:55:00,53.7,49.6,29.85,WNW,296,1.0,3.0,86,0.00,,,0.00,Wunderground v.1.15,2013-11-04 02:55:00,
2013-11-03 19:05:00,53.1,49.0,29.85,WNW,296,0.0,3.0,86,0.00,,,0.00,Wunderground v.1.15,2013-11-04 03:05:00,
2013-11-03 19:10:00,52.8,48.7,29.85,WNW,296,0.0,3.0,86,0.00,,,0.00,Wunderground v.1.15,2013-11-04 03:10:00,
2013-11-03 19:20:00,52.3,48.2,29.85,WNW,296,0.0,3.0,86,0.00,,,0.00,Wunderground v.1.15,2013-11-04 03:20:00,
2013-11-03 19:30:00,51.7,47.6,29.85,WNW,296,0.0,3.0,86,0.00,,,0.00,Wunderground v.1.15,2013-11-04 03:30:00,
2013-11-03 19:35:00,51.4,47.4,29.85,NW,317,0.0,3.0,86,0.00,,,0.00,Wunderground v.1.15,2013-11-04 03:35:00,
2013-11-03 19:45:00,50.8,47.1,29.84,North,360,1.0,3.0,87,0.00,,,0.00,Wunderground v.1.15,2013-11-04 03:45:00,
2013-11-03 19:50:00,50.5,46.8,29.84,North,360,1.0,1.0,87,0.00,,,0.00,Wunderground v.1.15,2013-11-04 03:50:00,
2013-11-03 19:55:00,50.3,46.9,29.83,North,360,0.0,3.0,88,0.00,,,0.00,Wunderground v.1.15,2013-11-04 03:55:00,
2013-11-03 20:05:00,50.2,47.1,29.83,NNE,22,0.0,3.0,89,0.00,,,0.00,Wunderground v.1.15,2013-11-04 04:05:00,
2013-11-03 20:10:00,50.1,47.0,29.83,NNE,22,0.0,3.0,89,0.00,,,0.00,Wunderground v.1.15,2013-11-04 04:10:00,
2013-11-03 20:20:00,49.8,46.7,29.84,NNE,22,0.0,3.0,89,0.00,,,0.00,Wunderground v.1.15,2013-11-04 04:20:00,
2013-11-03 20:25:00,49.5,46.1,29.84,North,355,0.0,3.0,88,0.00,,,0.00,Wunderground v.1.15,2013-11-04 04:25:00,
2013-11-03 20:35:00,49.0,45.6,29.84,North,355,0.0,3.0,88,0.00,,,0.00,Wunderground v.1.15,2013-11-04 04:35:00,
2013-11-03 20:40:00,48.8,45.4,29.85,NNW,346,0.0,3.0,88,0.00,,,0.00,Wunderground v.1.15,2013-11-04 04:40:00,
2013-11-03 20:50:00,48.5,45.7,29.85,NNW,346,0.0,3.0,90,0.00,,,0.00,Wunderground v.1.15,2013-11-04 04:50:00,
2013-11-03 20:55:00,48.4,45.6,29.85,NNW,346,0.0,3.0,90,0.00,,,0.00,Wunderground v.1.15,2013-11-04 04:55:00,
2013-11-03 21:05:00,48.1,45.3,29.85,NNW,346,0.0,3.0,90,0.00,,,0.00,Wunderground v.1.15,2013-11-04 05:05:00,
2013-11-03 21:15:00,47.9,45.1,29.86,NNW,342,0.0,3.0,90,0.00,,,0.00,Wunderground v.1.15,2013-11-04 05:15:00,
2013-11-03 21:20:00,48.0,45.5,29.86,NNW,342,0.0,3.0,91,0.00,,,0.00,Wunderground v.1.15,2013-11-04 05:20:00,
2013-11-03 21:25:00,48.0,45.5,29.86,NNW,342,0.0,3.0,91,0.00,,,0.00,Wunderground v.1.15,2013-11-04 05:25:00,
2013-11-03 21:30:00,48.2,46.0,29.85,NNW,342,0.0,3.0,92,0.00,,,0.00,Wunderground v.1.15,2013-11-04 05:30:00,
2013-11-03 21:35:00,48.4,46.2,29.85,NNW,342,0.0,3.0,92,0.00,,,0.00,Wunderground v.1.15,2013-11-04 05:35:00,
2013-11-03 21:40:00,48.6,46.7,29.85,NNW,342,0.0,3.0,93,0.00,,,0.00,Wunderground v.1.15,2013-11-04 05:40:00,
2013-11-03 21:45:00,48.7,46.5,29.85,North,5,0.0,3.0,92,0.00,,,0.00,Wunderground v.1.15,2013-11-04 05:45:00,
2013-11-03 21:50:00,48.8,46.6,29.85,North,9,0.0,3.0,92,0.00,,,0.00,Wunderground v.1.15,2013-11-04 05:50:00,
2013-11-03 22:00:00,49.0,47.1,29.85,North,360,0.0,3.0,93,0.00,,,0.00,Wunderground v.1.15,2013-11-04 06:00:00,
2013-11-03 22:05:00,49.1,47.2,29.85,North,5,0.0,3.0,93,0.00,,,0.00,Wunderground v.1.15,2013-11-04 06:05:00,
2013-11-03 22:15:00,49.6,47.7,29.84,NNE,18,1.0,3.0,93,0.00,,,0.00,Wunderground v.1.15,2013-11-04 06:15:00,
2013-11-03 22:25:00,50.1,48.4,29.84,NNE,18,0.0,3.0,94,0.00,,,0.00,Wunderground v.1.15,2013-11-04 06:25:00,
2013-11-03 22:35:00,50.6,48.7,29.84,ESE,109,0.0,3.0,93,0.00,,,0.00,Wunderground v.1.15,2013-11-04 06:35:00,
2013-11-03 22:45:00,50.6,48.7,29.85,ESE,105,0.0,3.0,93,0.00,,,0.00,Wunderground v.1.15,2013-11-04 06:45:00,
2013-11-03 22:50:00,50.6,48.7,29.85,ESE,105,0.0,3.0,93,0.00,,,0.00,Wunderground v.1.15,2013-11-04 06:50:00,
2013-11-03 23:00:00,50.8,48.8,29.84,North,9,1.0,1.0,93,0.00,,,0.00,Wunderground v.1.15,2013-11-04 07:00:00,
2013-11-03 23:05:00,50.9,48.9,29.84,North,9,1.0,3.0,93,0.00,,,0.00,Wunderground v.1.15,2013-11-04 07:05:00,
2013-11-03 23:15:00,51.0,49.0,29.84,North,9,0.0,3.0,93,0.00,,,0.00,Wunderground v.1.15,2013-11-04 07:15:00,
2013-11-03 23:25:00,51.1,49.1,29.84,North,5,0.0,3.0,93,0.00,,,0.00,Wunderground v.1.15,2013-11-04 07:25:00,
2013-11-03 23:35:00,51.3,49.3,29.83,ESE,107,0.0,3.0,93,0.00,,,0.00,Wunderground v.1.15,2013-11-04 07:35:00,
2013-11-03 23:40:00,51.3,49.1,29.83,East,101,0.0,3.0,92,0.00,,,0.00,Wunderground v.1.15,2013-11-04 07:40:00,
2013-11-03 23:50:00,51.3,49.1,29.83,East,101,0.0,3.0,92,0.00,,,0.00,Wunderground v.1.15,2013-11-04 07:50:00,